Regional Weather Roundup
Issued by NWS Midland/Odessa, TX

Skip options and go directly to product.
Home | Oldest Version | Previous Version | Current Version | All | Text Only | Save Text | Print | Product List | Glossary Off

Skip product version selection by date and time.   

644
ASUS44 KMAF 020101
RWRMAF
MIDLAND AREA WEATHER ROUNDUP
NATIONAL WEATHER SERVICE MIDLAND TX
700 PM CST SUN MAR 01 2015

...IN SOUTHWEST TEXAS AND SOUTHEAST NEW MEXICO...

CITY           SKY/WX    TMP DP  RH WIND       PRES   REMARKS
ALPINE         PTCLDY    48  40  71 E6        30.24R
ANDREWS        CLOUDY    35  34  98 E8        30.22R WCI  28
ARTESIA        PTCLDY    43  39  87 S6        30.20R WCI  39
BIG SPRING     CLOUDY    33  32  94 NE13G18   30.28R WCI  24
CARLSBAD       MOCLDY    43  35  73 S10       30.18R WCI  37
DRYDEN           N/A     49  44  83 E9        30.17R
FORT STOCKTON  CLOUDY    43  39  86 NE10      30.19R WCI  37
GUAD PASS      NOT AVBL
HOBBS          CLOUDY    36  36 100 NE12      30.21R WCI  27
MARFA          MOCLDY    63  25  23 SE9       30.15R
MIDLAND AIRPK  FOG       36  36 100 E13       30.24R VSB 1   WCI  27
MIDLAND INTL   FOG       35  34  96 E13       30.22R VSB 3/4 WCI  26
ODESSA         FOG       35  34  96 E13       30.22R VSB 3/4 WCI  26
PECOS          CLOUDY    44  38  78 NE9       30.21R WCI  39
PRESIDIO       FAIR      68  40  36 S3        30.02S
SEMINOLE       CLOUDY    34  32  94 NE8       30.24R WCI  27
SNYDER         CLOUDY    30  30  99 NE6       30.29R FOG     WCI  24
WINK           CLOUDY    42  34  73 E10       30.20R WCI  36
$$
...OTHER STATIONS IN TEXAS...

CITY           SKY/WX    TMP DP  RH WIND       PRES   REMARKS
ABILENE        CLOUDY    32  30  92 N5        30.31R WCI  27
AMARILLO       CLOUDY    30  27  88 NE9       30.29R WCI  22
AUSTIN         LGT RAIN  42  42 100 N14       30.27R FOG     WCI  35
BROWNSVILLE    CLOUDY    57  55  93 NE8       30.16R FOG
CORPUS CHRISTI DRIZZLE   50  49  96 N10       30.18R FOG
DALLAS FTW     CLOUDY    36  34  92 N9        30.33S WCI  29
DEL RIO        CLOUDY    51  46  83 NW6       30.19S
EL PASO        MOCLDY    71  12  10 S8        30.02S
HOUSTON INT    FOG       54  53  97 N10       30.22R VSB 1/4
LUBBOCK        CLOUDY    31  28  89 NE12      30.26R WCI  22
SAN ANGELO     CLOUDY    35  34  96 NE13      30.27S WCI  26
SAN ANTONIO    CLOUDY    46  43  89 N10       30.22R
WACO           CLOUDY    38  36  92 N13       30.31S WCI  30
WICHITA FALLS  NOT AVBL
$$
...OTHER LOCATIONS IN NEW MEXICO...

CITY           SKY/WX    TMP DP  RH WIND       PRES   REMARKS
ALAMAGORDO     PTCLDY    64  25  22 S9        30.06R
ALBUQUERQUE    PTCLDY    60  30  32 S16       30.01S
CANNON AFB     CLOUDY    32  31  96 E10       30.22R WCI  24
CLOVIS         CLOUDY    30  28  93 E9        30.23R WCI  22
HOLLOMAN AFB   PTCLDY    67  22  18 N13       30.03R
ROSWELL        CLOUDY    37  34  89 NW8       30.19R WCI  31
RUIDOSO        PTCLDY    55  25  30 SW16      30.17R
SANTA FE       CLOUDY    51  35  54 CALM      30.07R
TRUTH OR CONSE PTCLDY    65  26  23 S10       30.02S
TUCUMCARI      CLOUDY    32  28  85 NE13      30.23R WCI  22
$$

USA.gov is the U.S. government's official web portal to all federal, state and local government web resources and services.